FW9817 Weather Reports


time (UTC)temp
C
wind
direction
speed
KPH
gust
KPH
rain 1hr
cm
rain 24hr
cm
rain mn
cm
humidity
%
barometer
mb
20260507010059 11 330 3.2 8.0 0.18 1.57 1.57 93 1004.3
20260507004558 12 328 1.6 6.4 0.23 1.57 1.57 94 1004.4
20260507003100 12 334 1.6 4.8 0.20 1.52 1.52 94 1004.1
20260507001617 12 322 1.6 11.3 0.25 1.47 1.47 93 1003.9
20260506234603 14 243 0.0 3.2 0.46 1.32 1.32 94 1003.3
20260506233058 15 259 0.0 3.2 0.46 1.32 1.32 94 1003.3
20260506231559 15 0 1.6 6.4 0.36 1.22 1.22 94 1003.2
20260506230059 15 169 1.6 9.7 0.05 0.91 0.91 93 1003.0
20260506224559 15 236 0.0 9.7 0.03 1.02 0.89 93 1003.1
20260506223057 15 131 6.4 17.7 0.00 0.99 0.86 92 1003.2
20260506221601 15 149 8.0 16.1 0.00 0.99 0.86 92 1003.3
20260506220108 15 178 6.4 12.9 0.03 0.99 0.86 92 1003.4
20260506214602 15 172 8.0 17.7 0.03 1.07 0.86 93 1003.5
20260506213104 15 155 4.8 14.5 0.05 1.07 0.86 94 1003.7
20260506211558 14 150 4.8 11.3 0.05 1.07 0.86 93 1003.6
20260506210120 14 132 3.2 8.0 0.03 1.04 0.84 93 1003.6
20260506204558 15 106 3.2 8.0 0.05 1.04 0.84 94 1003.8
20260506203141 14 119 1.6 6.4 0.23 1.02 0.81 94 1004.0
20260506201558 14 115 3.2 6.4 0.25 1.02 0.81 94 1004.2
20260506194558 13 147 6.4 11.3 0.33 0.99 0.79 94 1004.7
20260506193057 13 167 6.4 11.3 0.13 0.79 0.58 92 1004.8
20260506191605 14 131 3.2 8.0 0.15 0.76 0.56 93 1004.8
20260506190100 14 128 6.4 8.0 0.15 0.71 0.51 93 1005.1
20260506184603 15 124 1.6 8.0 0.15 0.66 0.46 92 1005.2
20260506183111 15 142 0.0 4.8 0.23 0.66 0.46 92 1005.3
20260506181601 15 203 0.0 4.8 0.23 0.61 0.41 92 1005.7
20260506174609 15 0 0.0 1.6 0.30 0.51 0.30 93 1005.8
20260506173059 15 0 0.0 1.6 0.23 0.43 0.23 92 1005.9
20260506171611 15 0 0.0 1.6 0.18 0.38 0.18 90 1005.6
20260506164601 16 0 0.0 3.2 0.00 0.20 0.00 81 1005.8
20260506163133 16 114 1.6 4.8 0.00 0.20 0.00 81 1005.9
20260506161602 17 120 0.0 3.2 0.00 0.20 0.00 81 1006.3
20260506154557 16 0 0.0 4.8 0.00 0.20 0.00 80 1007.3
20260506153119 16 121 0.0 6.4 0.00 0.20 0.00 79 1007.3
20260506151558 16 0 0.0 1.6 0.00 0.20 0.00 79 1007.4
20260506150056 16 133 1.6 3.2 0.00 0.20 0.00 79 1007.4
20260506144558 16 0 0.0 3.2 0.00 0.20 0.00 79 1007.4
20260506143058 16 0 0.0 3.2 0.00 0.20 0.00 80 1007.2
20260506141600 15 129 1.6 3.2 0.00 0.20 0.00 80 1007.3
20260506134556 15 0 0.0 3.2 0.00 0.20 0.00 82 1007.5
20260506133100 15 124 0.0 3.2 0.00 0.20 0.00 82 1007.8
20260506131608 14 0 0.0 4.8 0.00 0.20 0.00 82 1007.9
20260506130059 14 121 3.2 8.0 0.00 0.20 0.00 82 1007.6
20260506124558 15 141 0.0 3.2 0.00 0.20 0.00 81 1007.8
20260506123111 14 0 0.0 1.6 0.00 0.20 0.00 82 1007.8
20260506113058 13 156 1.6 6.4 0.00 0.20 0.00 83 1008.1
20260506111558 13 0 0.0 4.8 0.00 0.20 0.00 84 1008.1
20260506110104 12 108 0.0 3.2 0.00 0.20 0.00 90 1008.1
20260506104609 12 0 0.0 1.6 0.00 0.20 0.00 91 1008.2
20260506103107 11 0 0.0 0.0 0.00 0.20 0.00 92 1008.2
20260506101637 11 0 0.0 0.0 0.00 0.20 0.00 91 1008.1
20260506100110 12 0 0.0 0.0 0.00 0.20 0.00 91 1008.0
20260506093107 12 0 0.0 0.0 0.00 0.20 0.00 91 1007.8
20260506091603 12 0 0.0 3.2 0.00 0.20 0.00 89 1007.6
20260506090112 12 0 0.0 0.0 0.00 0.20 0.00 90 1007.8
20260506083108 13 0 1.6 1.6 0.00 0.20 0.00 86 1007.9
20260506081619 14 337 0.0 3.2 0.00 0.20 0.00 84 1007.8
20260506073058 13 336 0.0 3.2 0.00 0.20 0.00 90 1007.8
20260506071601 13 0 0.0 1.6 0.00 0.20 0.00 89 1007.5
20260506070104 13 0 0.0 0.0 0.00 0.20 0.00 89 1007.5
20260506061557 15 0 0.0 1.6 0.00 0.20 0.00 84 1007.5
20260506050115 15 0 0.0 3.2 0.00 0.20 0.00 84 1007.6
20260506044600 15 0 0.0 3.2 0.00 0.20 0.00 84 1007.7
20260506043059 15 333 0.0 3.2 0.00 0.20 0.00 86 1007.6
20260506040059 15 0 0.0 1.6 0.00 0.20 0.00 86 1007.5
20260506034603 15 0 0.0 4.8 0.00 0.20 0.20 82 1007.6
20260506033059 16 0 0.0 4.8 0.00 0.20 0.20 81 1007.6
20260506031604 16 340 3.2 4.8 0.00 0.20 0.20 80 1007.7
20260506024608 15 0 0.0 1.6 0.00 0.20 0.20 81 1007.5
20260506023112 16 336 1.6 3.2 0.00 0.20 0.20 79 1007.4
20260506021602 15 343 0.0 1.6 0.00 0.20 0.20 82 1007.1
20260506020059 16 0 0.0 0.0 0.00 0.20 0.20 80 1007.5
20260506014558 16 0 0.0 0.0 0.00 0.20 0.20 80 1007.6
20260506013105 16 0 0.0 1.6 0.00 0.20 0.20 81 1007.5
20260506011606 15 347 0.0 3.2 0.00 0.20 0.20 81 1007.6